Miscellaneous Local Product
Issued by NWS Hastings, NE

Home | Current Version | Previous Version | Text Only | Print | Product List | Glossary On
Versions: 1 2 3 4 5 6 7 8 9 10 11 12 13 14 15 16 17 18 19 20 21 22 23 24 25 26 27 28 29 30 31 32 33 34 35 36 37 38 39 40 41 42 43 44 45 46 47 48 49 50
000
AXUS43 KGID 210502
MISGRI

GID CWA HOURLY WEATHER ROUNDUP
NATIONAL WEATHER SERVICE HASTINGS NE
1200 AM CDT TUE APR 21 2015

NOTE: "FAIR" INDICATES FEW OR NO CLOUDS BELOW 12,000 FEET WITH NO
SIGNIFICANT WEATHER AND/OR OBSTRUCTIONS TO VISIBILITY.

...SOUTH CENTRAL NEBRASKA...

CITY           SKY/WX    TMP DP  RH WIND       PRES   REMARKS
GRAND ISLAND   CLOUDY    44  30  57 W8        29.86S
HASTINGS       CLEAR     41  28  60 W6        29.86S
KEARNEY        CLEAR     43  27  52 W7        29.88S
ORD            CLOUDY    44  27  51 W8        29.84S
YORK           CLOUDY    43  32  65 W8        29.85S
AURORA         CLOUDY    43  31  61 W8        29.86S
LEXINGTON      CLEAR     37  32  81 W3        29.88S
HOLDREGE       CLEAR     38  31  77 CALM      29.88S
HEBRON         CLEAR     37  28  68 W3        29.87S

...NEBRASKA PANHANDLE...

CITY           SKY/WX    TMP DP  RH WIND       PRES   REMARKS
CHADRON        CLEAR     30  25  81 CALM      29.92R
ALLIANCE       CLEAR     35  24  64 N3        29.90R
SCOTTSBLUFF    CLEAR     40  27  59 W5        29.91R
SIDNEY         CLEAR     31  26  82 W9        29.92S WCI  23

...WESTERN AND NORTH CENTRAL NEBRASKA...

CITY           SKY/WX    TMP DP  RH WIND       PRES   REMARKS
VALENTINE      CLOUDY    41  26  55 W7        29.86S
AINSWORTH      CLOUDY    44  26  48 W6        29.85S
ONEILL         CLOUDY    44  23  45 W9        29.82S
BROKEN BOW     CLOUDY    36  30  79 CALM      29.86S
IMPERIAL       CLEAR     37  28  70 W6        29.90S WCI  32
NORTH PLATTE   CLEAR     33  26  75 CALM      29.89R
MCCOOK         CLEAR     38  31  76 SW8       29.88F WCI  32

...EASTERN NEBRASKA...

CITY           SKY/WX    TMP DP  RH WIND       PRES   REMARKS
NORFOLK        CLOUDY    42  21  43 W12       29.80S
SO SIOUX CITY  CLEAR     42  15  33 W12       29.75S
TEKAMAH        CLEAR     40  23  50 W13       29.78S WCI  32
COLUMBUS       PTCLDY    39  21  48 NW5       29.84S
ALBION         PTCLDY    40  23  50 CALM      29.83S
OMAHA EPPLEY   CLEAR     47  19  33 W12       29.79S
OFFUTT AFB     CLEAR     40  24  54 W7        29.79S WCI  35
MILLARD        CLEAR     42  27  55 CALM      29.81S
LINCOLN        MOCLDY    43  28  55 CALM      29.84S
NEBRASKA CITY  CLEAR     41  23  48 W9        29.82S
BEATRICE       PTCLDY    41  29  63 W7        29.85S
FALLS CITY     CLEAR     43  29  57 W3        29.83S

...NORTHERN KANSAS...

CITY           SKY/WX    TMP DP  RH WIND       PRES   REMARKS
GOODLAND       PTCLDY    38  33  82 CALM      29.94F
HILL CITY      CLEAR     43  32  65 W5        29.91S
NORTON         CLEAR     39  27  60 SW6       29.88F WCI  35
PHILLIPSBURG   CLEAR     43  36  75 W8        29.89S
SMITH CENTER   CLEAR     43  27  52 CALM      29.90R
BELOIT         CLEAR     37  30  75 CALM      29.89R
HAYS           MOCLDY    39  25  56 W5        29.92S
RUSSELL        CLOUDY    47  35  63 SW7       29.89F
CONCORDIA      MOCLDY    46  28  49 SW7       29.88S
SALINA         CLOUDY    48  34  58 SW9       29.90S
TOPEKA         CLEAR     46  32  58 W3        29.88R



USA.gov is the U.S. government's official web portal to all federal, state and local government web resources and services.